Погода в Токмаке

Киргизия     42°49′49″N   75°18′04″E
В апреле 2022 года жителям России запретили посещать сайт meteo.paraplan.net по решению Генеральной прокуратуры. Аудитория сайта уменьшилась в 10 раз. Владельцы сайта не видят смысла в поддержке погодного сервера в таких условиях. Сайт будет закрыт в октябре.
темп.,
°C
ветер,
м/с
пор.,
м/с
влажн.,
%
обл.,
%
осадки,
мм/ч
давл.,
гПа
погр.,
м
6 октября, чт
чт600:00+9вюв22590 0.1 102618
03:00+8юв11540 0.0 102510
06:00+8ююв12520 0.0 102513
09:00+13с11390 0.0 1024200
12:00+17сз32342 0.0 1022704
15:00+19зсз432931 0.0 10211197
18:00+16з233458 0.1 102249
21:00+12вюв22421 0.0 102313
7 октября, пт
пт700:00+12ююв11411 0.0 102311
03:00+11ююв22408 0.0 102113
06:00+11ю11410 0.0 102111
09:00+15ссв11300 0.0 1020177
12:00+19сз32240 0.0 1019753
15:00+22сз33200 0.0 10171306
18:00+18зсз2325100 0.0 101844
21:00+15ююв2132100 0.0 102011
8 октября, сб
сб800:00+14юв2234100 0.0 102016
03:00+14юв113472 0.0 102012
06:00+13юв1135100 0.0 102011
09:00+17с112998 0.0 1021140
12:00+20ссз322436 0.0 1020896
15:00+22зсз222149 0.0 10181597
18:00+19зсз342484 0.0 102082
21:00+15ююз2227100 0.0 102112
9 октября, вс
вс900:00+13ююв11330 0.0 102211
03:00+12ю22370 0.0 102111
06:00+11ююз11390 0.0 102310
09:00+13сз22280 0.0 1024251
12:00+17сз33205 0.0 1023853
15:00+19зсз44165 0.0 10221532
18:00+15сз34215 0.0 102497
21:00+11ююз22275 0.0 102614
10 октября, пн
пн1000:00+9ю21305 0.0 102715
03:00+8ююв11335 0.0 102712
06:00+7ююв22336 0.0 102711
09:00+12всв22252 0.0 1026308
12:00+16ссз22180 0.0 1024886
15:00+19сз22150 0.0 10221249
18:00+15сз22190 0.0 102213
21:00+11юв22230 0.0 102215